GW5385 Weather Reports


time (UTC)temp
C
wind
direction
speed
KPH
gust
KPH
rain 1hr
cm
rain 24hr
cm
rain mn
cm
humidity
%
barometer
mb
20260903133008 3 100 0.0 0.0 0.00 0.10 0.00 90 1009.8
20260903131507 3 100 0.0 3.2 0.00 0.10 0.00 89 1009.6
20260903130005 3 179 0.0 1.6 0.00 0.10 0.00 90 1009.3
20260903124504 3 129 0.0 0.0 0.00 0.10 0.00 89 1009.2
20260903123100 3 134 0.0 1.6 0.00 0.10 0.00 89 1009.1
20260903123001 3 241 0.0 1.6 0.00 0.10 0.00 89 1009.1
20260903121600 3 241 0.0 3.2 0.00 0.10 0.00 89 1008.8
20260903120113 3 153 0.0 4.8 0.00 0.10 0.00 89 1008.9
20260903114557 3 233 0.0 1.6 0.00 0.10 0.00 89 1009.0
20260903113058 3 285 0.0 0.0 0.00 0.10 0.00 89 1009.0
20260903111552 3 285 0.0 1.6 0.00 0.10 0.00 88 1009.2
20260903110053 3 300 0.0 4.8 0.00 0.10 0.00 88 1009.2
20260903104546 3 297 0.0 3.2 0.00 0.10 0.00 88 1009.4
20260903103042 4 174 0.0 0.0 0.00 0.10 0.00 88 1009.4
20260903101540 4 222 0.0 1.6 0.00 0.10 0.00 87 1009.3
20260903100038 4 217 0.0 0.0 0.00 0.10 0.00 86 1009.1
20260903094539 5 217 0.0 0.0 0.00 0.10 0.00 87 1009.0
20260903093029 5 204 0.0 1.6 0.00 0.10 0.00 85 1009.1
20260903091528 6 355 0.0 3.2 0.00 0.10 0.00 84 1008.8
20260903090024 6 53 0.0 1.6 0.00 0.10 0.00 84 1008.8
20260903084538 7 152 0.0 0.0 0.00 0.10 0.00 81 1008.7
20260903083014 8 226 0.0 3.2 0.00 0.10 0.00 80 1008.7
20260903081512 8 238 0.0 4.8 0.00 0.10 0.00 80 1008.7
20260903080009 8 224 1.6 6.4 0.00 0.10 0.00 80 1008.7
20260903074506 9 229 1.6 11.3 0.00 0.10 0.00 80 1008.4
20260903073006 10 177 0.0 4.8 0.00 0.10 0.00 81 1008.5
20260903071533 10 232 0.0 1.6 0.00 0.10 0.00 79 1008.5
20260903070032 10 259 0.0 3.2 0.00 0.10 0.00 78 1008.2
20260903064558 10 278 0.0 1.6 0.00 0.10 0.00 77 1008.6
20260903063107 10 233 0.0 0.0 0.00 0.10 0.00 80 1008.7
20260903061534 10 233 0.0 0.0 0.00 0.10 0.00 78 1008.8
20260903060029 11 233 0.0 1.6 0.00 0.10 0.10 75 1008.3
20260903054519 11 236 3.2 8.0 0.00 0.10 0.10 73 1008.6
20260903053028 12 239 4.8 8.0 0.00 0.10 0.10 73 1008.8
20260903051517 11 255 3.2 4.8 0.00 0.10 0.10 73 1008.9
20260903050016 12 240 6.4 11.3 0.00 0.10 0.10 71 1008.9
20260903044514 12 246 9.7 29.0 0.00 0.10 0.10 68 1009.2
20260903043028 12 259 11.3 20.9 0.00 0.10 0.10 67 1009.2
20260903041513 12 224 14.5 33.8 0.00 0.10 0.10 66 1009.2
20260903040011 11 217 8.0 17.7 0.00 0.10 0.10 73 1009.2
20260903034509 11 241 4.8 9.7 0.00 0.10 0.10 74 1009.2
20260903033009 11 233 4.8 9.7 0.00 0.10 0.10 74 1009.1
20260903031507 11 227 4.8 9.7 0.00 0.10 0.10 75 1009.1
20260903030007 11 239 6.4 11.3 0.00 0.10 0.10 75 1008.4
20260903024505 11 247 1.6 8.0 0.00 0.10 0.10 74 1008.3
20260903023005 12 251 0.0 6.4 0.00 0.10 0.10 73 1008.8
20260903021509 13 252 4.8 22.5 0.00 0.10 0.10 70 1009.2
20260903020003 13 238 14.5 20.9 0.00 0.10 0.10 75 1008.9
20260903014605 13 266 16.1 24.1 0.00 0.10 0.10 76 1008.7
20260903013100 15 241 3.2 9.7 0.00 0.10 0.10 76 1008.8
20260903011604 15 184 1.6 4.8 0.03 0.10 0.10 71 1008.7
20260903010059 15 188 0.0 3.2 0.03 0.10 0.10 74 1008.3
20260903004555 15 50 0.0 3.2 0.03 0.10 0.10 77 1008.0
20260903003054 15 35 1.6 8.0 0.03 0.10 0.10 73 1007.7
20260903001554 15 20 1.6 4.8 0.05 0.08 0.08 70 1008.6
20260903000056 15 235 0.0 8.0 0.08 0.08 0.08 70 1009.5
20260902234522 15 247 6.4 20.9 0.08 0.08 0.08 73 1010.0
20260902233022 14 249 9.7 24.1 0.05 0.05 0.05 74 1009.5
20260902231518 15 201 24.1 45.1 0.03 0.03 0.03 72 1009.2
20260902230016 19 281 19.3 59.5 0.00 0.00 0.00 54 1008.1
20260902224516 26 169 9.7 16.1 0.00 0.00 0.00 23 1005.1
20260902223012 26 145 1.6 11.3 0.00 0.00 0.00 30 1004.5
20260902221507 27 155 4.8 11.3 0.00 0.00 0.00 29 1005.0
20260902220005 28 195 6.4 16.1 0.00 0.00 0.00 29 1005.2
20260902214503 28 171 6.4 14.5 0.00 0.00 0.00 29 1005.4
20260902213000 28 176 1.6 14.5 0.00 0.00 0.00 30 1005.5
20260902211608 28 247 4.8 20.9 0.00 0.00 0.00 30 1005.8
20260902210112 28 203 8.0 17.7 0.00 0.00 0.00 30 1006.1
20260902204545 27 151 4.8 12.9 0.00 0.00 0.00 31 1006.5
20260902203044 27 159 4.8 12.9 0.00 0.00 0.00 33 1006.8
20260902201537 26 158 8.0 16.1 0.00 0.00 0.00 34 1007.0
20260902200034 26 136 6.4 19.3 0.00 0.00 0.00 34 1007.1
20260902194534 25 155 8.0 17.7 0.00 0.00 0.00 35 1007.3
20260902193031 25 175 4.8 17.7 0.00 0.00 0.00 36 1007.5
20260902191628 25 217 4.8 19.3 0.00 0.00 0.00 36 1007.6
20260902190059 26 210 8.0 19.3 0.00 0.00 0.00 35 1007.9
20260902184554 26 210 6.4 17.7 0.00 0.00 0.00 36 1008.0
20260902183049 25 244 6.4 20.9 0.00 0.00 0.00 39 1008.2
20260902181554 25 177 6.4 16.1 0.00 0.00 0.00 40 1008.4
20260902180059 23 272 8.0 22.5 0.00 0.00 0.00 41 1008.6
20260902174540 24 233 9.7 22.5 0.00 0.00 0.00 41 1008.8
20260902173035 22 257 6.4 19.3 0.00 0.00 0.00 44 1009.0
20260902171533 22 247 8.0 22.5 0.00 0.00 0.00 43 1008.9
20260902170034 22 209 8.0 16.1 0.00 0.00 0.00 44 1008.8
20260902164532 22 211 4.8 12.9 0.00 0.00 0.00 43 1008.7
20260902163028 22 217 4.8 11.3 0.00 0.00 0.00 44 1008.7
20260902161526 22 236 4.8 14.5 0.00 0.00 0.00 43 1008.7
20260902160024 22 245 4.8 14.5 0.00 0.00 0.00 44 1008.9
20260902154523 21 172 4.8 12.9 0.00 0.00 0.00 45 1009.1
20260902153017 20 202 3.2 9.7 0.00 0.00 0.00 48 1009.2
20260902151517 18 233 0.0 4.8 0.00 0.00 0.00 53 1009.4
20260902150010 17 259 0.0 3.2 0.00 0.00 0.00 55 1009.6
20260902144517 16 247 0.0 1.6 0.00 0.00 0.00 54 1009.7
20260902143002 16 161 0.0 3.2 0.00 0.00 0.00 56 1009.8
20260902141502 16 226 1.6 4.8 0.00 0.00 0.00 54 1010.0
20260902140002 16 234 3.2 9.7 0.00 0.00 0.00 52 1009.9
20260902134559 16 242 1.6 4.8 0.00 0.00 0.00 54 1009.8